User: anonymous   Login
Location: Chevoux
(46.3801°N, 4.9476°E)
Time: 06:57:06
(UTC+00:00)
Language:

FO-99 - Orbit

View from above orbital plane
View from above orbital plane
View from above satellite
View from above satellite

Ground track
Ground track

The orbit data is extracted from the following two-line orbital elements,

1 43937U 19003F   21166.87921040  .00001857  00000-0  74939-4 0  9993
2 43937  97.1756 210.1244 0023720  22.7040 337.5242 15.25757437134028
Epoch (UTC): 15 June 2021 21:06:03
Eccentricity: 0.0023720
inclination: 97.1756°
perigee height: 472 km
apogee height: 505 km
right ascension of ascending node: 210.1244°
argument of perigee: 22.7040°
revolutions per day: 15.25757437
mean anomaly at epoch: 337.5242°
orbit number at epoch: 13402

The dashed part of the orbit path shows where the satellite is in the earth's shadow,  

DLR